User: anonymous   Login
Location: Montague
(41.3030°N, 74.7940°W)
Time: 18:30:13
(UTC-04:00)
Language:

Cosmos 1461 - Orbit

View from above orbital plane
View from above orbital plane
View from above satellite
View from above satellite

Ground track
Ground track

The orbit data is extracted from the following two-line orbital elements,

1 14064U 83044A   17142.94551211 +.00000679 +00000-0 +74592-4 0  9990
2 14064 065.0021 002.9204 0088284 048.3178 312.5449 14.93604884719584
Epoch (UTC): 22 May 2017 22:41:32
Eccentricity: 0.0088284
inclination: 65.0021°
perigee height: 525 km
apogee height: 648 km
right ascension of ascending node: 2.9204°
argument of perigee: 48.3178°
revolutions per day: 14.93604884
mean anomaly at epoch: 312.5449°
orbit number at epoch: 71958

The dashed part of the orbit path shows where the satellite is in the earth's shadow,  

DLR